Regional Weather Roundup
Issued by NWS

Home | Current Version | Previous Version | Text Only | Print | Product List | Glossary On
Versions: 1 2 3 4 5 6 7 8 9 10 11 12 13 14 15 16 17 18 19 20 21 22 23 24 25 26 27 28 29 30 31 32 33 34 35 36 37 38 39 40 41 42 43 44 45 46 47 48 49 50
000
ASUS45 KBOI 040010
RWRID

IDAHO REGIONAL WEATHER ROUNDUP
NATIONAL WEATHER SERVICE BOISE ID
600 PM MDT MON AUG 03 2020

NOTE: "FAIR" INDICATES FEW OR NO CLOUDS BELOW 12000 FEET
WITH NO SIGNIFICANT WEATHER AND/OR OBSTRUCTIONS TO VISIBILITY

IDZ012-014-040100-
SOUTHWEST IDAHO


CITY           SKY/WX    TMP DP  RH WIND       PRES   REMARKS
BOISE          SUNNY     92  36  14 NW10      29.99F
CALDWELL       SUNNY     91  45  20 NW9       29.97F
MOUNTAIN HOME  SUNNY     93  35  13 NW17G30   29.98F
$$

IDZ016-017-040100-
SOUTHCENTRAL IDAHO


CITY           SKY/WX    TMP DP  RH WIND       PRES   REMARKS
BURLEY         SUNNY     87  47  24 W18       30.02F
JEROME         SUNNY     89  43  20 W17       30.03F
TWIN FALLS     SUNNY     89  42  19 NW16      30.05S
$$

IDZ019>023-040100-
SOUTHEAST IDAHO


CITY           SKY/WX    TMP DP  RH WIND       PRES   REMARKS
IDAHO FALLS    MOSUNNY   91  48  22 S20       30.00F
POCATELLO      SUNNY     92  43  18 W22G30    30.01F
REXBURG        MOSUNNY   90  47  22 S13G24    30.00F
$$

IDZ006-010-011-018-031-032-040100-
CENTRAL IDAHO MOUNTAINS


CITY           SKY/WX    TMP DP  RH WIND       PRES   REMARKS
MCCALL         SUNNY     82  38  20 NW7G17    30.12F
HAILEY         SUNNY     88  37  16 SW12G25   30.08S
STANLEY          N/A     82  28  14 NW9G18    30.20S
SALMON         SUNNY     89  48  24 N17G23    29.95F
CHALLIS        MOSUNNY   92  32  12 W13       30.01S
$$

IDZ002-004-006-007-026-040100-
NORTHERN IDAHO


CITY           SKY/WX    TMP DP  RH WIND       PRES   REMARKS
LEWISTON       SUNNY     89  45  21 NW13G20   29.99F
LOWELL           N/A     91  50  24 VRB3      30.00S
COEUR D`ALENE  SUNNY     84  45  25 SW15      30.05F
MULLAN PASS    SUNNY     68  44  42 VRB3      30.24F
$$




USA.gov is the U.S. government's official web portal to all federal, state and local government web resources and services.